Tracking 20242 objects as of 24-Jan-2020
HD Live streaming from Space Station
objects crossing your sky now

HELIOS 1A

Track HELIOS 1A now!
10-day predictions
HELIOS 1A is classified as:


NORAD ID: 23605
Int'l Code: 1995-033A
Perigee: 590.5 km
Apogee: 612.0 km
Inclination: 98.2 °
Period: 96.6 minutes
Semi major axis: 6972 km
RCS: Unknown
Launch date: July 7, 1995
Source: France (FR)
Launch site: FRENCH GUIANA (FRGUI)

Optical reconnaissance; cannot see through clouds or at night.
aabbcc
Your satellite tracking list
Your tracking list is empty




NASA's NSSDC Master Catalog

Two Line Element Set (TLE):
1 23605U 95033A   19252.91374098 0.00000140  00000-0  14067-4 0    06
2 23605  98.1788 341.8882 0015399 299.7082  60.2916 14.91237839    08
Source of the keplerian elements: McCants